Weather History for PAPH - August, 2013

Change the Weather History Date:

Saturday, August 31, 2013

  Actual Average Record
Temperature  
Mean Temperature 54 °F -  
Max Temperature 59 °F 53 °F 64 °F (1999)
Min Temperature 48 °F 44 °F 37 °F (2014)
Degree Days  
Heating Degree Days 12    
Growing Degree Days 4 (Base 50)    
Moisture  
Dew Point 46 °F    
Average Humidity 78    
Maximum Humidity 87    
Minimum Humidity 67    
Precipitation  
Precipitation 0.11 in - - ()
Sea Level Pressure  
Sea Level Pressure 29.93 in    
Wind  
Wind Speed 6 mph (SW)    
Max Wind Speed 12 mph    
Max Gust Speed -    
Visibility 9 miles    
Events      
Averages and records for this station are not official NWS values.
T = Trace of Precipitation, MM = Missing Value Source: NWS Daily Summary

Daily Weather History Graph

Daily Weather History Graph

Search for Another Location

Airport or City:

Trip Planner

Search our weather history database for the weather conditions in past years. The results will help you decide how hot, cold, wet, or windy it might be!

Date:

Astronomy

Aug. 31, 2013 Rise Set
Actual Time 7:35 AM AKDT 9:32 PM AKDT
Civil Twilight 6:54 AM AKDT 10:12 PM AKDT
Nautical Twilight 6:03 AM AKDT 11:03 PM AKDT
Astronomical Twilight 5:01 AM AKDT 12:04 AM AKDT
Moon 2:40 AM AKDT (8/31) 7:07 PM AKDT (8/31)
Length of Visible Light 15h 17m
Length of Day
13h 56m
Waning Crescent, 20% of the Moon is Illuminated
Aug 31
Waning Crescent
Sep 5
New
Sep 12
First Quarter
Sep 19
Full
Sep 26
Last Quarter

Hourly Weather History & Observations

Time (AKDT) Temp. Dew Point Humidity Pressure Visibility Wind Dir Wind Speed Gust Speed Precip Events Conditions
12:16 AM 51.8 °F 44.6 °F 76% 30.01 in 9.0 mi NW 4.6 mph - 0.01 in   Overcast
12:36 AM 50.0 °F 44.6 °F 82% 29.99 in 10.0 mi NNE 4.6 mph - 0.05 in   Overcast
12:56 AM 50.0 °F 44.6 °F 82% 30.00 in 10.0 mi NNE 5.8 mph - 0.07 in   Overcast
1:16 AM 50.0 °F 44.6 °F 82% 29.99 in 10.0 mi North 3.5 mph - 0.01 in   Overcast
1:36 AM 50.0 °F 44.6 °F 82% 29.99 in 10.0 mi North 3.5 mph - 0.01 in   Overcast
1:56 AM 50.0 °F 44.6 °F 82% 29.99 in 10.0 mi NNE 3.5 mph - 0.01 in   Overcast
2:16 AM 50.0 °F 44.6 °F 82% 29.99 in 10.0 mi North 4.6 mph - N/A   Overcast
2:36 AM 50.0 °F 44.6 °F 82% 29.99 in 10.0 mi North 5.8 mph - N/A   Overcast
2:56 AM 50.0 °F 44.6 °F 82% 29.98 in 10.0 mi NNE 5.8 mph - N/A   Overcast
3:16 AM 50.0 °F 44.6 °F 82% 29.97 in 10.0 mi ENE 8.1 mph - N/A   Overcast
3:36 AM 50.0 °F 44.6 °F 82% 29.96 in 10.0 mi NE 5.8 mph - 0.03 in   Overcast
3:56 AM 50.0 °F 42.8 °F 76% 29.96 in 10.0 mi NE 5.8 mph - 0.03 in   Overcast
4:16 AM 50.0 °F 44.6 °F 82% 29.95 in 10.0 mi NE 4.6 mph - N/A   Overcast
4:36 AM 50.0 °F 44.6 °F 82% 29.95 in 10.0 mi NNE 5.8 mph - N/A   Overcast
4:56 AM 50.0 °F 42.8 °F 76% 29.95 in 10.0 mi NNE 4.6 mph - N/A   Overcast
5:16 AM 50.0 °F 44.6 °F 82% 29.96 in 10.0 mi North 4.6 mph - N/A   Overcast
5:36 AM 50.0 °F 44.6 °F 82% 29.95 in 10.0 mi NNE 6.9 mph - N/A   Overcast
5:56 AM 48.2 °F 44.6 °F 87% 29.95 in 9.0 mi North 6.9 mph - N/A   Overcast
6:16 AM 48.2 °F 44.6 °F 87% 29.95 in 10.0 mi NNE 4.6 mph - N/A   Overcast
6:36 AM 48.2 °F 44.6 °F 87% 29.94 in 10.0 mi NE 4.6 mph - N/A   Overcast
6:56 AM 48.2 °F 44.6 °F 87% 29.93 in 10.0 mi NE 6.9 mph - N/A   Overcast
7:16 AM 48.2 °F 44.6 °F 87% 29.93 in 10.0 mi NNE 5.8 mph - N/A   Overcast
7:36 AM 48.2 °F 42.8 °F 82% 29.92 in 10.0 mi NE 5.8 mph - N/A   Overcast
7:56 AM 48.2 °F 42.8 °F 82% 29.92 in 10.0 mi ENE 5.8 mph - N/A   Overcast
8:16 AM 50.0 °F 42.8 °F 76% 29.93 in 10.0 mi Calm Calm - N/A   Overcast
8:36 AM 50.0 °F 42.8 °F 76% 29.92 in 10.0 mi NE 3.5 mph - N/A   Overcast
8:56 AM 50.0 °F 44.6 °F 82% 29.92 in 10.0 mi Calm Calm - N/A   Overcast
9:16 AM 50.0 °F 44.6 °F 82% 29.92 in 10.0 mi Calm Calm - N/A   Overcast
9:36 AM 50.0 °F 44.6 °F 82% 29.92 in 10.0 mi SSE 5.8 mph - N/A   Overcast
9:56 AM 51.8 °F 44.6 °F 76% 29.92 in 10.0 mi South 5.8 mph - N/A   Overcast
10:16 AM 51.8 °F 44.6 °F 76% 29.92 in 10.0 mi South 3.5 mph - N/A   Mostly Cloudy
10:36 AM 53.6 °F 44.6 °F 72% 29.90 in 10.0 mi South 5.8 mph - N/A   Overcast
10:56 AM 53.6 °F 46.4 °F 77% 29.92 in 10.0 mi SSW 6.9 mph - N/A   Overcast
11:16 AM 53.6 °F 46.4 °F 77% 29.92 in 10.0 mi South 6.9 mph - N/A   Overcast
11:36 AM 53.6 °F 46.4 °F 77% 29.93 in 10.0 mi South 5.8 mph - N/A   Overcast
11:56 AM 55.4 °F 46.4 °F 72% 29.93 in 10.0 mi South 5.8 mph - N/A   Overcast
12:16 PM 55.4 °F 46.4 °F 72% 29.93 in 10.0 mi South 3.5 mph - N/A   Overcast
12:36 PM 57.2 °F 46.4 °F 67% 29.92 in 10.0 mi SSW 5.8 mph - N/A   Overcast
12:56 PM 57.2 °F 46.4 °F 67% 29.93 in 10.0 mi SSW 5.8 mph - N/A   Overcast
1:16 PM 57.2 °F 46.4 °F 67% 29.92 in 10.0 mi SSW 6.9 mph - N/A   Mostly Cloudy
1:36 PM 57.2 °F 46.4 °F 67% 29.93 in 10.0 mi SW 8.1 mph - N/A   Overcast
1:56 PM 57.2 °F 46.4 °F 67% 29.93 in 10.0 mi SSW 4.6 mph - N/A   Overcast
2:16 PM 57.2 °F 48.2 °F 72% 29.93 in 10.0 mi SSW 6.9 mph - N/A   Overcast
2:36 PM 59.0 °F 48.2 °F 67% 29.92 in 10.0 mi SW 6.9 mph - N/A   Overcast
2:56 PM 57.2 °F 48.2 °F 72% 29.92 in 10.0 mi SW 6.9 mph - N/A   Overcast
3:16 PM 57.2 °F 48.2 °F 72% 29.93 in 10.0 mi SW 8.1 mph - N/A   Overcast
3:36 PM 57.2 °F 48.2 °F 72% 29.93 in 10.0 mi SW 8.1 mph - N/A   Overcast
3:56 PM 57.2 °F 48.2 °F 72% 29.92 in 10.0 mi WSW 9.2 mph - N/A   Overcast
4:16 PM 57.2 °F 48.2 °F 72% 29.91 in 10.0 mi WSW 6.9 mph - N/A   Overcast
4:36 PM 55.4 °F 48.2 °F 77% 29.92 in 10.0 mi WSW 10.4 mph - N/A   Overcast
4:56 PM 55.4 °F 48.2 °F 77% 29.92 in 10.0 mi WSW 8.1 mph - N/A   Overcast
5:16 PM 55.4 °F 48.2 °F 77% 29.91 in 10.0 mi SW 5.8 mph - N/A   Overcast
5:36 PM 55.4 °F 48.2 °F 77% 29.91 in 10.0 mi SW 8.1 mph - N/A   Overcast
5:56 PM 55.4 °F 48.2 °F 77% 29.90 in 10.0 mi SW 8.1 mph - N/A   Overcast
6:16 PM 55.4 °F 48.2 °F 77% 29.91 in 10.0 mi WSW 11.5 mph - N/A   Overcast
6:36 PM 55.4 °F 48.2 °F 77% 29.91 in 10.0 mi WSW 8.1 mph - N/A   Overcast
6:56 PM 53.6 °F 48.2 °F 82% 29.91 in 10.0 mi WSW 9.2 mph - N/A   Overcast
7:16 PM 53.6 °F 48.2 °F 82% 29.91 in 10.0 mi WSW 10.4 mph - N/A   Overcast
7:36 PM 53.6 °F 48.2 °F 82% 29.91 in 1.2 mi WSW 8.1 mph - N/A   Overcast
7:56 PM 53.6 °F 48.2 °F 82% 29.91 in 2.5 mi WSW 8.1 mph - N/A   Overcast
8:16 PM 53.6 °F 48.2 °F 82% 29.88 in 5.0 mi South 5.8 mph - N/A   Overcast
8:36 PM 53.6 °F 48.2 °F 82% 29.89 in 5.0 mi SSW 6.9 mph - N/A   Overcast
8:56 PM 53.6 °F 48.2 °F 82% 29.89 in 8.0 mi SW 8.1 mph - N/A   Overcast
9:16 PM 53.6 °F 48.2 °F 82% 29.89 in 2.5 mi SW 6.9 mph - N/A   Overcast
9:36 PM 53.6 °F 48.2 °F 82% 29.88 in 0.8 mi SSW 8.1 mph - N/A   Overcast
9:56 PM 53.6 °F 48.2 °F 82% 29.88 in 1.5 mi SW 8.1 mph - N/A   Overcast
10:16 PM 53.6 °F 48.2 °F 82% 29.88 in 10.0 mi SW 9.2 mph - N/A   Overcast
10:36 PM 53.6 °F 48.2 °F 82% 29.88 in 10.0 mi SSW 9.2 mph - N/A   Overcast
10:56 PM 53.6 °F 48.2 °F 82% 29.88 in 10.0 mi SSW 6.9 mph - N/A   Overcast
11:16 PM 53.6 °F 48.2 °F 82% 29.88 in 10.0 mi South 5.8 mph - N/A   Overcast
11:36 PM 53.6 °F 48.2 °F 82% 29.87 in 10.0 mi South 5.8 mph - N/A   Overcast
11:56 PM 53.6 °F 48.2 °F 82% 29.88 in 10.0 mi South 4.6 mph - N/A   Overcast